Weather in Labytnangi

Russia / Yamalo-Nenets Autonomous Okrug     66°39′38″N   66°23′02″E
temp.,
°C
wind,
m/s
gust,
m/s
humid.,
%
clouds,
%
prec.,
mm/h
press.,
hPa
HPBL,
m
27 february, sat
sat2723:00−26sw129972 0.0 102120
02:00−26wsw1210024 0.0 102020
05:00−27sw2210028 0.0 102119
08:00−27wsw2210039 0.0 102119
11:00−25sw239719 0.0 102135
14:00−24wsw239740 0.0 102180
17:00−26sw239943 0.0 102119
20:00−27wsw2210071 0.0 102019
28 february, sun
sun2823:00−27wsw2210085 0.0 102019
02:00−28wsw23100100 0.0 101920
05:00−28wsw23100100 0.1 102020
08:00−29wsw23100100 0.0 101920
11:00−28sw34100100 0.1 1019112
14:00−26sw3599100 0.0 1019211
17:00−28wsw3399100 0.0 101926
20:00−29wsw3399100 0.0 101840
1 march, mon
mon123:00−29wsw3599100 0.0 101974
02:00−28wsw4698100 0.0 1017119
05:00−29wsw35100100 0.1 101782
08:00−30wsw4610098 0.0 1016100
11:00−29wsw599795 0.0 1014253
14:00−26sw499787 0.0 1012308
17:00−27wsw349993 0.0 101175
20:00−27wsw34100100 0.1 100847
2 march, tue
tue223:00−26wsw2299100 0.1 100633
02:00−24sw2499100 0.1 1004118
05:00−21ssw3999100 0.3 1003331
08:00−19ssw51097100 0.5 1001448
11:00−18ssw61097100 1.3 1002460
14:00−17ssw6996100 0.7 1001457
17:00−17ssw5996100 1.2 1001476
20:00−16ssw31097100 0.4 1001428
3 march, wed
wed323:00−15ssw41096100 0.9 1001457
02:00−15s51096100 0.4 1001416
05:00−16s4996100 0.9 1001392
08:00−16s3897100 0.5 1000359
11:00−15s4795100 0.9 1001479
14:00−15s4794100 0.4 1001513
17:00−15s3597100 0.8 1001215
20:00−15s3697100 0.4 1001194